Time,TemperatureF,DewpointF,PressureIn,WindDirection,WindDirectionDegrees,WindSpeedMPH,WindSpeedGustMPH,Humidity,HourlyPrecipIn,Conditions,Clouds,dailyrainin,SoftwareType,DateUTC
2013-05-22 00:00:00,38.0,-99.9,-100.00,North,-999,-999.0,-999.0,-999,-99.99,,,0.00,,2013-05-22 07:00:00,
2013-05-22 00:53:00,38.0,-99.9,-100.00,North,-999,-999.0,-999.0,-999,-99.99,,,0.00,,2013-05-22 07:53:00,
2013-05-22 01:00:00,38.0,-99.9,-100.00,SW,231,3.0,8.0,-999,-99.99,,,0.00,,2013-05-22 08:00:00,
2013-05-22 01:52:00,38.0,-99.9,-100.00,SW,231,3.0,8.0,-999,-99.99,,,0.00,,2013-05-22 08:52:00,
2013-05-22 02:00:00,37.0,-99.9,-100.00,SW,233,3.0,7.0,-999,-99.99,,,0.00,,2013-05-22 09:00:00,
2013-05-22 02:53:00,37.0,-99.9,-100.00,SW,233,3.0,7.0,-999,-99.99,,,0.00,,2013-05-22 09:53:00,
2013-05-22 03:00:00,37.0,-99.9,-100.00,SW,233,4.0,9.0,-999,-99.99,,,0.00,,2013-05-22 10:00:00,
2013-05-22 03:53:00,37.0,-99.9,-100.00,SW,233,4.0,9.0,-999,-99.99,,,0.00,,2013-05-22 10:53:00,
2013-05-22 04:00:00,37.0,-99.9,-100.00,SSW,209,4.0,9.0,-999,-99.99,,,0.00,,2013-05-22 11:00:00,
2013-05-22 04:53:00,37.0,-99.9,-100.00,SSW,209,4.0,9.0,-999,-99.99,,,0.00,,2013-05-22 11:53:00,
2013-05-22 05:00:00,36.0,-99.9,-100.00,South,190,7.0,15.0,-999,-99.99,,,0.00,,2013-05-22 12:00:00,
2013-05-22 05:52:00,36.0,-99.9,-100.00,South,190,7.0,15.0,-999,-99.99,,,0.00,,2013-05-22 12:52:00,
2013-05-22 06:00:00,34.0,-99.9,-100.00,South,176,10.0,15.0,-999,-99.99,,,-99.99,,2013-05-22 13:00:00,
2013-05-22 06:52:00,34.0,-99.9,-100.00,South,176,10.0,15.0,-999,-99.99,,,-99.99,,2013-05-22 13:52:00,
2013-05-22 07:00:00,34.0,-99.9,-100.00,South,179,10.0,17.0,-999,-99.99,,,0.00,,2013-05-22 14:00:00,
2013-05-22 07:53:00,34.0,-99.9,-100.00,South,179,10.0,17.0,-999,-99.99,,,0.00,,2013-05-22 14:53:00,
2013-05-22 08:00:00,34.0,-99.9,-100.00,SW,219,4.0,11.0,-999,-99.99,,,-99.99,,2013-05-22 15:00:00,
2013-05-22 08:53:00,34.0,-99.9,-100.00,SW,219,4.0,11.0,-999,-99.99,,,-99.99,,2013-05-22 15:53:00,
2013-05-22 09:00:00,35.0,-99.9,-100.00,South,190,8.0,16.0,-999,-99.99,,,-99.99,,2013-05-22 16:00:00,
2013-05-22 09:53:00,35.0,-99.9,-100.00,South,190,8.0,16.0,-999,-99.99,,,-99.99,,2013-05-22 16:53:00,
2013-05-22 10:00:00,32.0,-99.9,-100.00,South,181,9.0,15.0,-999,-99.99,,,0.01,,2013-05-22 17:00:00,
2013-05-22 10:54:00,32.0,-99.9,-100.00,South,181,9.0,15.0,-999,-99.99,,,0.01,,2013-05-22 17:54:00,
2013-05-22 11:00:00,30.0,-99.9,-100.00,North,-999,-999.0,-999.0,-999,-99.99,,,0.01,,2013-05-22 18:00:00,
2013-05-22 11:52:00,30.0,-99.9,-100.00,North,-999,-999.0,-999.0,-999,-99.99,,,0.01,,2013-05-22 18:52:00,
2013-05-22 12:00:00,29.0,-99.9,-100.00,North,-999,-999.0,-999.0,-999,-99.99,,,-99.99,,2013-05-22 19:00:00,
2013-05-22 12:52:00,29.0,-99.9,-100.00,North,-999,-999.0,-999.0,-999,-99.99,,,-99.99,,2013-05-22 19:52:00,
2013-05-22 13:00:00,30.0,-99.9,-100.00,South,184,13.0,21.0,-999,-99.99,,,0.01,,2013-05-22 20:00:00,
2013-05-22 13:52:00,30.0,-99.9,-100.00,South,184,13.0,21.0,-999,-99.99,,,0.01,,2013-05-22 20:52:00,
2013-05-22 14:00:00,30.0,-99.9,-100.00,South,177,11.0,19.0,-999,-99.99,,,0.01,,2013-05-22 21:00:00,
2013-05-22 14:53:00,30.0,-99.9,-100.00,South,177,11.0,19.0,-999,-99.99,,,0.01,,2013-05-22 21:53:00,
2013-05-22 15:00:00,32.0,-99.9,-100.00,SSW,203,9.0,18.0,-999,-99.99,,,0.02,,2013-05-22 22:00:00,
2013-05-22 15:52:00,32.0,-99.9,-100.00,SSW,203,9.0,18.0,-999,-99.99,,,0.02,,2013-05-22 22:52:00,
2013-05-22 16:00:00,35.0,-99.9,-100.00,South,185,11.0,18.0,-999,-99.99,,,0.01,,2013-05-22 23:00:00,
2013-05-22 16:53:00,35.0,-99.9,-100.00,South,185,11.0,18.0,-999,-99.99,,,0.01,,2013-05-22 23:53:00,
2013-05-22 17:00:00,35.0,-99.9,-100.00,SSW,193,13.0,22.0,-999,-99.99,,,-99.99,,2013-05-23 00:00:00,
2013-05-22 17:42:00,35.0,-99.9,-100.00,SSW,193,13.0,22.0,-999,-99.99,,,-99.99,,2013-05-23 00:42:00,
2013-05-22 17:52:00,35.0,-99.9,-100.00,SSW,193,13.0,22.0,-999,-99.99,,,-99.99,,2013-05-23 00:52:00,
2013-05-22 18:00:00,34.0,-99.9,-100.00,South,189,10.0,16.0,-999,-99.99,,,0.00,,2013-05-23 01:00:00,
2013-05-22 18:42:00,34.0,-99.9,-100.00,South,189,10.0,16.0,-999,-99.99,,,0.00,,2013-05-23 01:42:00,
2013-05-22 18:52:00,34.0,-99.9,-100.00,South,189,10.0,16.0,-999,-99.99,,,0.00,,2013-05-23 01:52:00,
2013-05-22 19:00:00,36.0,-99.9,-100.00,South,185,7.0,12.0,-999,-99.99,,,0.01,,2013-05-23 02:00:00,
2013-05-22 20:00:00,33.0,-99.9,-100.00,SSW,209,5.0,9.0,-999,-99.99,,,0.00,,2013-05-23 03:00:00,
2013-05-22 20:53:00,33.0,-99.9,-100.00,SSW,209,5.0,9.0,-999,-99.99,,,0.00,,2013-05-23 03:53:00,
2013-05-22 21:00:00,30.0,-99.9,-100.00,NE,41,4.0,7.0,-999,-99.99,,,0.00,,2013-05-23 04:00:00,
2013-05-22 21:52:00,30.0,-99.9,-100.00,NE,41,4.0,7.0,-999,-99.99,,,0.00,,2013-05-23 04:52:00,
2013-05-22 22:00:00,28.0,-99.9,-100.00,ENE,72,5.0,8.0,-999,-99.99,,,0.00,,2013-05-23 05:00:00,
2013-05-22 22:52:00,28.0,-99.9,-100.00,ENE,72,5.0,8.0,-999,-99.99,,,0.00,,2013-05-23 05:52:00,
2013-05-22 23:00:00,27.0,-99.9,-100.00,ENE,59,3.0,7.0,-999,-99.99,,,0.00,,2013-05-23 06:00:00,
2013-05-22 23:52:00,27.0,-99.9,-100.00,ENE,59,3.0,7.0,-999,-99.99,,,0.00,,2013-05-23 06:52:00,